Location: Cheadle
(51.0146°N, 113.5417°W)
Time: 13:07:49
(UTC+00:00)

Oscar 19 - Pass Details

Date: 04 December 2023
Orbit: 771 x 789 km, 98.9° (Epoch: 04 March)

Event Time Altitude Azimuth Distance (km) Brightness Sun altitude
Rises 10:53:12 0° 29° (NNE) 3,272 14.4 -40.6°
Reaches altitude 10° 10:56:39 10° 54° (NE) 2,342 13.7 -40.1°
Maximum altitude 10:59:27 15° 87° (E) 2,035 13.4 -39.6°
Drops below altitude 10° 11:02:15 10° 120° (ESE) 2,339 13.5 -39.2°
Sets 11:05:40 0° 144° (SE) 3,265 14.1 -38.7°
